Location: Newark
(42.8481°N, 0.4872°E)
Time: 23:24:08
(UTC+00:00)

Transit 2A - Pass Details

Date: 27 October 2020
Orbit: 595 x 963 km, 66.7° (Epoch: 03 December)

Event Time Altitude Azimuth Distance (km) Brightness Sun altitude
Rises 10:53:40 0° 322° (NW) 3,412 8.9 33.0°
Reaches altitude 10° 10:56:25 10° 313° (NW) 2,412 8.2 33.2°
Maximum altitude 11:01:21 34° 250° (WSW) 1,223 7.5 33.4°
Drops below altitude 10° 11:05:49 10° 186° (S) 2,174 9.7 33.5°
Sets 11:08:12 0° 177° (S) 3,031 10.2 33.6°
